When you browse on this site, cookies collect data to enhance your experience and personalize the content and advertising you see.
Visit our Privacy Policy to learn more. By continuing to use the site, you agree to this use of cookies and data.
  • în România
  • Lista ţărilor
  • Pe 7 zile
  • Temperatura apei
  • Meteo pe hartă
  • Widget-uri
  • user-avatar
    Intrare

    Meteo pe oră la Ashtarak

    Astăzi, 22 Noiembrie, Vineri

    Timp Temperatura Precipitaţii Vânt Presiune Umiditate
    00:00 +1°C° 0 mm 2 m/s 659 mmHg 64%
    01:00 +1°C° 0 mm 2 m/s 659 mmHg 66%
    02:00 +2°C° 0 mm 1 m/s 658 mmHg 68%
    03:00 +1°C° 0 mm 1 m/s 658 mmHg 66%
    04:00 +1°C° 0 mm 1 m/s 659 mmHg 67%
    05:00 +1°C° 0 mm 1 m/s 659 mmHg 69%
    06:00 0°C° 0 mm 1 m/s 659 mmHg 71%
    07:00 +2°C° 0 mm 1 m/s 660 mmHg 65%
    08:00 +3°C° 0 mm 1 m/s 660 mmHg 60%
    09:00 +4°C° 0 mm 1 m/s 661 mmHg 55%
    10:00 +5°C° 0 mm 1 m/s 661 mmHg 52%
    11:00 +6°C° 0 mm 1 m/s 661 mmHg 50%
    12:00 +7°C° 0 mm 1 m/s 661 mmHg 47%
    13:00 +7°C° 0 mm 1 m/s 660 mmHg 47%
    14:00 +7°C° 0 mm 1 m/s 660 mmHg 46%
    15:00 +7°C° 0 mm 1 m/s 660 mmHg 47%
    16:00 +6°C° 0 mm 1 m/s 660 mmHg 52%
    17:00 +4°C° 0 mm 1 m/s 660 mmHg 58%
    18:00 +3°C° 0 mm 1 m/s 660 mmHg 64%
    19:00 +3°C° 0 mm 1 m/s 661 mmHg 65%
    20:00 +2°C° 0 mm 1 m/s 661 mmHg 66%
    21:00 +1°C° 0 mm 2 m/s 662 mmHg 66%
    22:00 +1°C° 0 mm 2 m/s 662 mmHg 67%
    23:00 +1°C° 0 mm 1 m/s 662 mmHg 68%

    Mâine, 23 Noiembrie, Sâmbătă

    Timp Temperatura Precipitaţii Vânt Presiune Umiditate
    00:00 +1°C° 0 mm 1 m/s 662 mmHg 69%
    01:00 +1°C° 0 mm 1 m/s 662 mmHg 70%
    02:00 0°C° 0 mm 1 m/s 661 mmHg 72%
    03:00 0°C° 0 mm 1 m/s 661 mmHg 73%
    04:00 0°C° 0 mm 1 m/s 661 mmHg 74%
    05:00 -1°C° 0 mm 1 m/s 661 mmHg 75%
    06:00 -1°C° 0 mm 1 m/s 661 mmHg 75%
    07:00 0°C° 0 mm 1 m/s 662 mmHg 70%
    08:00 +2°C° 0 mm 1 m/s 662 mmHg 64%
    09:00 +3°C° 0 mm 1 m/s 663 mmHg 58%
    10:00 +4°C° 0 mm 1 m/s 662 mmHg 55%
    11:00 +5°C° 0 mm 1 m/s 662 mmHg 52%
    12:00 +6°C° 0 mm 1 m/s 662 mmHg 49%
    13:00 +6°C° 0 mm 1 m/s 662 mmHg 49%
    14:00 +6°C° 0 mm 1 m/s 661 mmHg 49%
    15:00 +7°C° 0 mm 1 m/s 661 mmHg 48%
    16:00 +5°C° 0 mm 1 m/s 661 mmHg 54%
    17:00 +4°C° 0 mm 1 m/s 661 mmHg 59%
    18:00 +2°C° 0 mm 0 m/s 661 mmHg 64%
    19:00 +1°C° 0 mm 0 m/s 661 mmHg 65%
    20:00 +1°C° 0 mm 0 m/s 661 mmHg 66%
    21:00 +2°C° 0 mm 1 m/s 661 mmHg 66%
    22:00 +1°C° 0 mm 1 m/s 661 mmHg 68%
    23:00 0°C° 0 mm 0 m/s 661 mmHg 69%

    Poimâine, 24 Noiembrie, Duminică

    Timp Temperatura Precipitaţii Vânt Presiune Umiditate
    00:00 0°C° 0 mm 0 m/s 661 mmHg 70%
    01:00 0°C° 0 mm 0 m/s 661 mmHg 71%
    02:00 -1°C° 0 mm 0 m/s 661 mmHg 72%
    03:00 -1°C° 0 mm 0 m/s 661 mmHg 74%
    04:00 -1°C° 0 mm 0 m/s 661 mmHg 74%
    05:00 -1°C° 0 mm 0 m/s 661 mmHg 75%
    06:00 -2°C° 0 mm 0 m/s 660 mmHg 75%
    07:00 0°C° 0 mm 0 m/s 661 mmHg 69%
    08:00 +1°C° 0 mm 0 m/s 662 mmHg 63%
    09:00 +3°C° 0 mm 0 m/s 662 mmHg 56%
    10:00 +5°C° 0 mm 1 m/s 662 mmHg 54%
    11:00 +6°C° 0 mm 1 m/s 661 mmHg 51%
    12:00 +6°C° 0 mm 1 m/s 661 mmHg 48%
    13:00 +7°C° 0 mm 1 m/s 661 mmHg 47%
    14:00 +7°C° 0 mm 1 m/s 660 mmHg 47%
    15:00 +7°C° 0 mm 1 m/s 660 mmHg 46%
    16:00 +6°C° 0 mm 1 m/s 660 mmHg 52%
    17:00 +3°C° 0 mm 0 m/s 660 mmHg 57%
    18:00 +2°C° 0 mm 0 m/s 660 mmHg 62%
    19:00 +2°C° 0 mm 0 m/s 660 mmHg 62%
    20:00 +1°C° 0 mm 0 m/s 660 mmHg 63%
    21:00 +1°C° 0 mm 0 m/s 660 mmHg 63%
    22:00 +1°C° 0 mm 0 m/s 660 mmHg 64%
    23:00 +1°C° 0 mm 0 m/s 660 mmHg 65%

    25 Noiembrie, Luni

    Timp Temperatura Precipitaţii Vânt Presiune Umiditate
    00:00 0°C° 0 mm 0 m/s 660 mmHg 66%
    01:00 0°C° 0 mm 0 m/s 660 mmHg 68%
    02:00 0°C° 0 mm 0 m/s 660 mmHg 69%
    03:00 0°C° 0 mm 0 m/s 659 mmHg 70%
    04:00 0°C° 0 mm 0 m/s 659 mmHg 71%
    05:00 0°C° 0 mm 0 m/s 659 mmHg 71%
    06:00 0°C° 0 mm 0 m/s 659 mmHg 72%
    07:00 +1°C° 0 mm 0 m/s 660 mmHg 66%
    08:00 +2°C° 0 mm 0 m/s 660 mmHg 61%
    09:00 +4°C° 0 mm 0 m/s 660 mmHg 55%
    10:00 +6°C° 0 mm 1 m/s 660 mmHg 52%
    11:00 +6°C° 0 mm 1 m/s 660 mmHg 49%
    12:00 +7°C° 0 mm 1 m/s 659 mmHg 46%
    13:00 +8°C° 0 mm 1 m/s 659 mmHg 46%
    14:00 +8°C° 0 mm 1 m/s 659 mmHg 47%
    15:00 +8°C° 0 mm 1 m/s 658 mmHg 47%
    16:00 +6°C° 0 mm 1 m/s 658 mmHg 51%
    17:00 +5°C° 0 mm 1 m/s 658 mmHg 55%
    18:00 +3°C° 0 mm 0 m/s 658 mmHg 59%
    19:00 +3°C° 0 mm 1 m/s 658 mmHg 60%
    20:00 +3°C° 0 mm 1 m/s 658 mmHg 60%
    21:00 +3°C° 0 mm 1 m/s 658 mmHg 61%
    22:00 +3°C° 0 mm 1 m/s 658 mmHg 63%
    23:00 +2°C° 0 mm 1 m/s 658 mmHg 65%

    26 Noiembrie, Marţi

    Timp Temperatura Precipitaţii Vânt Presiune Umiditate
    00:00 +2°C° 0 mm 1 m/s 658 mmHg 67%
    01:00 +2°C° 0 mm 1 m/s 658 mmHg 68%
    02:00 +2°C° 0 mm 1 m/s 658 mmHg 68%
    03:00 +2°C° 0 mm 1 m/s 658 mmHg 69%
    04:00 +1°C° 0 mm 1 m/s 657 mmHg 70%
    05:00 +1°C° 0 mm 1 m/s 657 mmHg 70%
    06:00 +1°C° 0 mm 1 m/s 657 mmHg 71%
    07:00 +2°C° 0 mm 1 m/s 658 mmHg 65%
    08:00 +4°C° 0 mm 1 m/s 658 mmHg 59%
    09:00 +5°C° 0 mm 1 m/s 659 mmHg 53%
    10:00 +6°C° 0 mm 1 m/s 658 mmHg 49%
    11:00 +6°C° 0 mm 2 m/s 658 mmHg 45%
    12:00 +8°C° 0 mm 2 m/s 658 mmHg 41%
    13:00 +8°C° 0 mm 2 m/s 658 mmHg 42%
    14:00 +8°C° 0 mm 2 m/s 657 mmHg 42%
    15:00 +8°C° 0 mm 2 m/s 657 mmHg 43%
    16:00 +7°C° 0 mm 2 m/s 657 mmHg 46%
    17:00 +6°C° 0 mm 2 m/s 657 mmHg 49%
    18:00 +6°C° 0 mm 1 m/s 657 mmHg 52%
    19:00 +6°C° 0 mm 1 m/s 657 mmHg 52%
    20:00 +5°C° 0 mm 1 m/s 657 mmHg 53%
    21:00 +5°C° 0 mm 1 m/s 657 mmHg 53%
    22:00 +5°C° 0 mm 1 m/s 657 mmHg 54%
    23:00 +5°C° 0 mm 1 m/s 657 mmHg 55%

    27 Noiembrie, Miercuri

    Timp Temperatura Precipitaţii Vânt Presiune Umiditate
    00:00 +5°C° 0 mm 1 m/s 656 mmHg 56%
    01:00 +4°C° 0 mm 1 m/s 656 mmHg 57%
    02:00 +4°C° 0 mm 1 m/s 656 mmHg 58%
    03:00 +4°C° 0 mm 1 m/s 656 mmHg 59%
    04:00 +4°C° 0.1 mm 1 m/s 656 mmHg 62%
    05:00 +5°C° 0.1 mm 1 m/s 656 mmHg 65%
    06:00 +5°C° 0.1 mm 1 m/s 657 mmHg 68%
    07:00 +5°C° 0.1 mm 2 m/s 657 mmHg 67%
    08:00 +5°C° 0.1 mm 2 m/s 657 mmHg 67%
    09:00 +6°C° 0.1 mm 2 m/s 657 mmHg 67%
    10:00 +7°C° 0 mm 2 m/s 657 mmHg 63%
    11:00 +7°C° 0 mm 2 m/s 657 mmHg 59%
    12:00 +8°C° 0 mm 2 m/s 656 mmHg 55%
    13:00 +8°C° 0 mm 2 m/s 656 mmHg 54%
    14:00 +9°C° 0 mm 2 m/s 656 mmHg 54%
    15:00 +9°C° 0 mm 2 m/s 656 mmHg 54%
    16:00 +8°C° 0 mm 2 m/s 656 mmHg 56%
    17:00 +7°C° 0 mm 2 m/s 656 mmHg 59%
    18:00 +6°C° 0 mm 2 m/s 656 mmHg 62%
    19:00 +6°C° 0.1 mm 2 m/s 656 mmHg 64%
    20:00 +6°C° 0.1 mm 2 m/s 656 mmHg 66%
    21:00 +6°C° 0.1 mm 2 m/s 656 mmHg 67%
    22:00 +6°C° 0 mm 2 m/s 656 mmHg 68%
    23:00 +6°C° 0 mm 1 m/s 656 mmHg 69%
    Arată mai mult